SWR455 EDDN-LSZH

Flight info

Callsign SWR455
Flight time 0h 36m
Altitude 22000
Route BOLSI1G/28 BOLSI Y166 DKB N869 GUPIN L173 LBU DCT SOLGO/N0390F210 T724 RILAX
Aircraft A321/M-SDE3FGHIRWY/LB1

Departure

Time 2026-04-26 11:13
Airport Nuremberg Airport (EDDN)

Arrival

Time 2026-04-26 11:49
Airport Zürich Airport (LSZH)
Time Latitude Longitude Altitude Speed Heading
2026-04-26 10:29 49.49522 11.07791 1026 ft 0 kts 188°
2026-04-26 11:01 49.49524 11.07792 1026 ft 3 kts 188°
2026-04-26 11:02 49.49543 11.07796 1025 ft 3 kts 188°
2026-04-26 11:02 49.49561 11.07801 1027 ft 3 kts 171°
2026-04-26 11:02 49.49578 11.07790 1025 ft 3 kts 142°
2026-04-26 11:02 49.49586 11.07775 1025 ft 0 kts 108°
2026-04-26 11:05 49.49585 11.07785 1026 ft 6 kts 104°
2026-04-26 11:06 49.49574 11.07873 1026 ft 8 kts 99°
2026-04-26 11:06 49.49567 11.07950 1027 ft 7 kts 98°
2026-04-26 11:06 49.49561 11.08012 1027 ft 5 kts 98°
2026-04-26 11:06 49.49551 11.08118 1026 ft 16 kts 97°
2026-04-26 11:07 49.49536 11.08274 1028 ft 11 kts 97°
2026-04-26 11:07 49.49571 11.08349 1031 ft 11 kts 14°
2026-04-26 11:07 49.49611 11.08479 1035 ft 21 kts 101°
2026-04-26 11:07 49.49587 11.08703 1037 ft 20 kts 99°
2026-04-26 11:08 49.49567 11.08904 1038 ft 17 kts 99°
2026-04-26 11:08 49.49552 11.09065 1040 ft 12 kts 98°
2026-04-26 11:08 49.49541 11.09175 1042 ft 9 kts 98°
2026-04-26 11:08 49.49532 11.09268 1044 ft 9 kts 98°
2026-04-26 11:09 49.49535 11.09365 1046 ft 8 kts 72°
2026-04-26 11:09 49.49556 11.09418 1047 ft 4 kts 54°
2026-04-26 11:09 49.49584 11.09476 1049 ft 11 kts 53°
2026-04-26 11:09 49.49589 11.09487 1049 ft 0 kts 53°
2026-04-26 11:10 49.49591 11.09491 1049 ft 0 kts 53°
2026-04-26 11:10 49.49595 11.09500 1050 ft 0 kts 53°
2026-04-26 11:10 49.49596 11.09500 1050 ft 1 kts 53°
2026-04-26 11:10 49.49623 11.09554 1051 ft 9 kts 47°
2026-04-26 11:11 49.49695 11.09557 1052 ft 6 kts 313°
2026-04-26 11:11 49.49699 11.09533 1052 ft 0 kts 277°
2026-04-26 11:12 49.49700 11.09523 1052 ft 5 kts 278°
2026-04-26 11:12 49.49734 11.09173 1046 ft 69 kts 278°
2026-04-26 11:12 49.49838 11.08114 1032 ft 129 kts 278°
2026-04-26 11:12 49.49987 11.06527 1156 ft 161 kts 278°
2026-04-26 11:13 49.50166 11.04822 1792 ft 161 kts 281°
2026-04-26 11:13 49.50336 11.03115 2382 ft 167 kts 280°
2026-04-26 11:13 49.50520 11.01245 2673 ft 188 kts 280°
2026-04-26 11:13 49.50726 10.99146 2918 ft 209 kts 280°
2026-04-26 11:14 49.50955 10.96803 3138 ft 233 kts 279°
2026-04-26 11:14 49.51196 10.94239 3460 ft 253 kts 276°
2026-04-26 11:14 49.51132 10.92423 3857 ft 261 kts 256°
2026-04-26 11:14 49.50672 10.90823 4253 ft 265 kts 237°
2026-04-26 11:15 49.49607 10.88489 5075 ft 266 kts 240°
2026-04-26 11:15 49.48888 10.86362 5776 ft 268 kts 247°
2026-04-26 11:15 49.48145 10.83692 6602 ft 270 kts 250°
2026-04-26 11:15 49.47433 10.81011 7369 ft 273 kts 247°
2026-04-26 11:16 49.46368 10.78554 8074 ft 281 kts 227°
2026-04-26 11:16 49.44742 10.76812 8774 ft 290 kts 205°
2026-04-26 11:16 49.42763 10.76128 9445 ft 298 kts 182°
2026-04-26 11:16 49.40665 10.76124 10151 ft 303 kts 181°
2026-04-26 11:17 49.38603 10.76118 10351 ft 323 kts 182°
2026-04-26 11:17 49.36280 10.76091 10469 ft 345 kts 182°
2026-04-26 11:17 49.33808 10.76047 10621 ft 364 kts 182°
2026-04-26 11:17 49.31235 10.75999 11057 ft 372 kts 182°
2026-04-26 11:18 49.28647 10.75720 11639 ft 374 kts 193°
2026-04-26 11:18 49.26231 10.74464 12225 ft 373 kts 209°
2026-04-26 11:18 49.24084 10.72173 12836 ft 372 kts 225°
2026-04-26 11:18 49.22465 10.69159 13407 ft 372 kts 240°
2026-04-26 11:19 49.21432 10.65541 14002 ft 373 kts 256°
2026-04-26 11:19 49.20778 10.61708 14526 ft 375 kts 257°
2026-04-26 11:19 49.20121 10.57823 15037 ft 378 kts 256°
2026-04-26 11:19 49.19460 10.53921 15550 ft 380 kts 256°
2026-04-26 11:20 49.18793 10.50003 16060 ft 383 kts 256°
2026-04-26 11:20 49.18333 10.47316 16385 ft 384 kts 256°
2026-04-26 11:20 49.17435 10.42097 17003 ft 387 kts 256°
2026-04-26 11:20 49.16749 10.38134 17477 ft 390 kts 256°
2026-04-26 11:21 49.16048 10.34099 17926 ft 392 kts 256°
2026-04-26 11:21 49.15351 10.30081 18345 ft 394 kts 256°
2026-04-26 11:21 49.14548 10.26063 18719 ft 396 kts 249°
2026-04-26 11:21 49.13316 10.22280 19096 ft 399 kts 239°
2026-04-26 11:22 49.11667 10.18843 19470 ft 401 kts 232°
2026-04-26 11:22 49.09913 10.15527 19863 ft 402 kts 232°
2026-04-26 11:22 49.08177 10.12246 20232 ft 403 kts 232°
2026-04-26 11:22 49.06413 10.08913 20642 ft 404 kts 232°
2026-04-26 11:23 49.04642 10.05570 21055 ft 405 kts 232°
2026-04-26 11:23 49.02876 10.02238 21467 ft 406 kts 232°
2026-04-26 11:23 49.01091 9.98878 21858 ft 408 kts 232°
2026-04-26 11:23 48.99295 9.95502 22190 ft 410 kts 232°
2026-04-26 11:24 48.97498 9.92119 22253 ft 415 kts 232°
2026-04-26 11:24 48.95656 9.88654 22254 ft 418 kts 232°
2026-04-26 11:24 48.93864 9.85298 22276 ft 418 kts 232°
2026-04-26 11:24 48.91989 9.81763 22255 ft 418 kts 234°
2026-04-26 11:25 48.90468 9.78024 22255 ft 417 kts 245°
2026-04-26 11:25 48.89450 9.73968 22257 ft 416 kts 255°
2026-04-26 11:25 48.88950 9.69656 22253 ft 416 kts 265°
2026-04-26 11:25 48.88988 9.65251 22252 ft 416 kts 275°
2026-04-26 11:26 48.89323 9.60890 22240 ft 416 kts 276°
2026-04-26 11:26 48.89655 9.56517 22244 ft 416 kts 276°
2026-04-26 11:26 48.89973 9.52245 22237 ft 415 kts 276°
2026-04-26 11:26 48.90289 9.47957 22228 ft 415 kts 276°
2026-04-26 11:27 48.90422 9.43668 22228 ft 414 kts 265°
2026-04-26 11:27 48.89877 9.39377 22220 ft 414 kts 252°
2026-04-26 11:27 48.88666 9.35426 22220 ft 415 kts 238°
2026-04-26 11:27 48.86862 9.32001 22224 ft 417 kts 225°
2026-04-26 11:28 48.84563 9.29323 22224 ft 419 kts 212°
2026-04-26 11:28 48.81941 9.27358 22224 ft 420 kts 207°
2026-04-26 11:28 48.79285 9.25479 22218 ft 421 kts 207°
2026-04-26 11:28 48.76656 9.23624 22223 ft 421 kts 207°
2026-04-26 11:29 48.74000 9.21753 22226 ft 421 kts 206°
2026-04-26 11:29 48.71337 9.19878 22223 ft 421 kts 207°
2026-04-26 11:29 48.68680 9.18006 22218 ft 421 kts 207°
2026-04-26 11:29 48.66022 9.16136 22220 ft 422 kts 207°
2026-04-26 11:30 48.63363 9.14267 22227 ft 422 kts 207°
2026-04-26 11:30 48.61566 9.13004 22223 ft 422 kts 207°
2026-04-26 11:30 48.58037 9.10524 22237 ft 421 kts 207°
2026-04-26 11:30 48.55358 9.08639 22236 ft 421 kts 207°
2026-04-26 11:31 48.52842 9.06869 22216 ft 422 kts 207°
2026-04-26 11:31 48.50110 9.04951 22213 ft 421 kts 207°
2026-04-26 11:31 48.47488 9.03112 22225 ft 421 kts 207°
2026-04-26 11:31 48.44856 9.01273 22221 ft 421 kts 207°
2026-04-26 11:32 48.42200 8.99424 22220 ft 421 kts 207°
2026-04-26 11:32 48.39538 8.97574 22223 ft 421 kts 207°
2026-04-26 11:32 48.36871 8.95720 22218 ft 421 kts 207°
2026-04-26 11:32 48.34217 8.93874 22207 ft 421 kts 207°
2026-04-26 11:33 48.31590 8.91961 22208 ft 420 kts 211°
2026-04-26 11:33 48.29163 8.89534 22216 ft 418 kts 218°
2026-04-26 11:33 48.26861 8.86957 22210 ft 418 kts 218°
2026-04-26 11:33 48.25292 8.85207 22214 ft 418 kts 218°
2026-04-26 11:34 48.22203 8.81776 22200 ft 418 kts 218°
2026-04-26 11:34 48.20624 8.80027 22215 ft 418 kts 218°
2026-04-26 11:34 48.18282 8.77465 22200 ft 415 kts 216°
2026-04-26 11:34 48.14933 8.74795 21414 ft 409 kts 207°
2026-04-26 11:35 48.13202 8.73561 20925 ft 407 kts 207°
2026-04-26 11:35 48.10650 8.71774 20204 ft 403 kts 207°
2026-04-26 11:35 48.08112 8.70015 19461 ft 401 kts 207°
2026-04-26 11:35 48.05621 8.68289 18752 ft 399 kts 207°
2026-04-26 11:36 48.03113 8.66545 17987 ft 396 kts 207°
2026-04-26 11:36 48.00625 8.64804 17260 ft 393 kts 207°
2026-04-26 11:36 47.98207 8.63107 17039 ft 378 kts 207°
2026-04-26 11:36 47.95878 8.61479 16907 ft 362 kts 207°
2026-04-26 11:37 47.93637 8.59917 16787 ft 347 kts 207°
2026-04-26 11:37 47.91488 8.58418 16645 ft 334 kts 207°
2026-04-26 11:37 47.89427 8.56979 16507 ft 322 kts 207°
2026-04-26 11:37 47.87420 8.55577 16189 ft 316 kts 207°
2026-04-26 11:38 47.85433 8.54192 15799 ft 314 kts 207°
2026-04-26 11:38 47.83462 8.52821 15394 ft 312 kts 207°
2026-04-26 11:38 47.81500 8.51457 15002 ft 310 kts 207°
2026-04-26 11:38 47.79562 8.50106 14609 ft 308 kts 207°
2026-04-26 11:39 47.77623 8.48753 14215 ft 306 kts 207°
2026-04-26 11:39 47.75710 8.47422 13985 ft 299 kts 207°
2026-04-26 11:39 47.73852 8.46139 13840 ft 289 kts 207°
2026-04-26 11:39 47.72086 8.44914 13705 ft 278 kts 209°
2026-04-26 11:40 47.70637 8.43177 13478 ft 262 kts 235°
2026-04-26 11:40 47.69831 8.40807 12780 ft 256 kts 251°
2026-04-26 11:40 47.69230 8.38318 12045 ft 256 kts 252°
2026-04-26 11:40 47.68655 8.35822 11332 ft 255 kts 253°
2026-04-26 11:41 47.68448 8.33252 10656 ft 251 kts 279°
2026-04-26 11:42 47.73661 8.36625 6116 ft 230 kts 138°
2026-04-26 11:43 47.72217 8.37619 5462 ft 236 kts 171°
2026-04-26 11:43 47.70598 8.37260 5070 ft 239 kts 205°
2026-04-26 11:43 47.69354 8.35656 5006 ft 241 kts 233°
2026-04-26 11:43 47.68269 8.33740 5022 ft 244 kts 226°
2026-04-26 11:44 47.67085 8.31987 5016 ft 243 kts 224°
2026-04-26 11:44 47.65696 8.30635 4996 ft 241 kts 192°
2026-04-26 11:44 47.64047 8.30805 4994 ft 236 kts 153°
2026-04-26 11:44 47.62878 8.32393 4735 ft 230 kts 116°
2026-04-26 11:45 47.62186 8.34516 4355 ft 231 kts 121°
2026-04-26 11:45 47.61051 8.36144 4070 ft 230 kts 140°
2026-04-26 11:45 47.59829 8.37688 4011 ft 229 kts 137°
2026-04-26 11:45 47.58649 8.39290 4014 ft 231 kts 134°
2026-04-26 11:46 47.57465 8.40919 3873 ft 231 kts 133°
2026-04-26 11:46 47.56297 8.42525 3616 ft 230 kts 134°
2026-04-26 11:46 47.55123 8.44135 3304 ft 230 kts 134°
2026-04-26 11:46 47.53958 8.45733 2979 ft 223 kts 135°
2026-04-26 11:47 47.52869 8.47224 2710 ft 203 kts 135°
2026-04-26 11:47 47.51908 8.48538 2482 ft 178 kts 134°
2026-04-26 11:47 47.51055 8.49706 2223 ft 158 kts 135°
2026-04-26 11:47 47.50214 8.50859 1998 ft 169 kts 135°
2026-04-26 11:48 47.49374 8.52003 1745 ft 160 kts 133°
2026-04-26 11:48 47.48589 8.53077 1525 ft 151 kts 132°
2026-04-26 11:48 47.47840 8.54095 1417 ft 137 kts 131°
2026-04-26 11:48 47.47224 8.54964 1407 ft 97 kts 137°
2026-04-26 11:49 47.46897 8.55410 1408 ft 50 kts 137°
2026-04-26 11:49 47.46718 8.55596 1410 ft 20 kts 156°
2026-04-26 11:49 47.46598 8.55673 1405 ft 17 kts 161°
2026-04-26 11:49 47.46482 8.55715 1403 ft 17 kts 168°
2026-04-26 11:50 47.46448 8.55726 1404 ft 0 kts 167°
2026-04-26 11:50 47.46417 8.55739 1403 ft 15 kts 162°
2026-04-26 11:50 47.46313 8.55843 1400 ft 18 kts 134°
2026-04-26 11:50 47.46229 8.55964 1405 ft 16 kts 136°
2026-04-26 11:51 47.46131 8.55993 1397 ft 15 kts 184°
2026-04-26 11:51 47.46000 8.55977 1397 ft 18 kts 186°
2026-04-26 11:51 47.45887 8.55925 1407 ft 11 kts 201°
2026-04-26 11:51 47.45837 8.55898 1402 ft 6 kts 199°
2026-04-26 11:52 47.45835 8.55897 1401 ft 0 kts 199°
2026-04-26 11:52 47.45830 8.55894 1404 ft 0 kts 199°
2026-04-26 11:52 47.45757 8.55874 1403 ft 29 kts 187°
2026-04-26 11:53 47.45645 8.55815 1400 ft 6 kts 263°
2026-04-26 11:53 47.45651 8.55741 1399 ft 13 kts 276°
2026-04-26 11:53 47.45658 8.55591 1397 ft 20 kts 275°
2026-04-26 11:54 47.45669 8.55221 1402 ft 12 kts 226°
2026-04-26 11:54 47.45574 8.55249 1405 ft 20 kts 159°
2026-04-26 11:54 47.45439 8.55344 1402 ft 23 kts 155°
2026-04-26 11:54 47.45327 8.55427 1408 ft 13 kts 134°
2026-04-26 11:55 47.45285 8.55537 1402 ft 12 kts 116°
2026-04-26 11:55 47.45280 8.55626 1397 ft 5 kts 43°
2026-04-26 11:55 47.45305 8.55640 1397 ft 1 kts 10°
2026-04-26 11:55 47.45321 8.55643 1406 ft 7 kts 10°
2026-04-26 11:56 47.45345 8.55648 1405 ft 0 kts
2026-04-26 11:56 47.45347 8.55648 1405 ft 0 kts